Location: Poughquag
(41.6090°N, 73.6820°W)
Time: 08:05:09
(UTC-05:00)

STRAND 1 - Pass Details

Date: 29 November 2023
Orbit: 766 x 778 km, 98.4° (Epoch: 24 February)

Event Time Altitude Azimuth Distance (km) Brightness Sun altitude
Exits shadow 19:54:29 20° 304° (NW) 1,737 ? -38.4°
Maximum altitude 19:54:57 20° 297° (WNW) 1,725 ? -38.5°
Drops below altitude 10° 19:58:33 10° 251° (WSW) 2,303 ? -39.2°
Sets 20:01:24 0° 235° (SW) 3,226 ? -39.7°
